Wind_Speed
10 11 11 11 12 12 12 12 13 13 13 14 14 14 13 13 14 13 13 13 13 13 13 13 13 13 13 14 14 13 13 13 13 12 12 13 13 13 13 14 14 14 13
12 12 12 12 12 12 12 12 13 13 13 13 13 13 13 13 14 14 14 13 13 13 13 13 13 13 13 13 13 13 13 13 12 12 11 11 11 11 11 11 11 12 12
12 13 13 13 13 13 13 13 13 13 13 13 13 13 13 13 13 13 13 13 13 13 13 13 13 13 13 14 14 13 13 12 12 12 11 11 10 10 10 11 11 11 11
13 13 13 13 13 13 14 14 13 13 13 13 13 13 13 12 13 13 13 13 13 13 13 14 14 14 13 13 13 14 14 12 12 11 11 11 11 11 10 11 11 12 12
14 14 14 14 14 14 14 14 14 14 13 13 13 14 14 13 13 13 13 13 13 13 14 14 14 14 14 14 13 13 14 13 13 12 12 12 12 12 11 11 11 11 12
14 14 14 14 14 14 14 14 14 14 14 14 14 14 14 14 14 14 14 15 15 15 15 15 15 15 15 15 15 15 15 14 14 14 13 12 12 12 12 12 12 12 13
14 15 15 14 15 14 14 15 15 14 15 15 15 15 15 15 15 15 15 15 16 17 17 17 16 16 16 16 16 16 16 15 15 15 14 14 13 12 12 12 12 12 12
15 15 15 15 15 15 15 15 15 15 15 16 16 16 16 16 16 16 16 16 17 17 17 17 17 17 17 17 17 17 16 16 15 15 15 15 14 13 13 12 13 13 13
15 15 15 15 15 15 15 15 16 16 16 16 16 16 17 17 17 16 16 16 17 17 18 18 18 18 18 18 18 18 17 16 15 15 16 15 14 14 13 13 13 13 13
15 15 15 16 16 15 15 15 16 16 16 17 17 16 17 17 17 16 16 16 17 17 18 19 19 18 18 19 19 19 18 17 16 16 16 16 16 15 15 14 14 14 13
15 15 15 16 15 16 16 16 16 17 17 17 17 17 17 17 16 17 17 16 17 18 19 19 19 18 19 19 19 19 19 18 18 17 17 17 17 16 16 16 14 14 14
15 16 16 16 16 17 17 17 17 17 18 18 17 17 17 17 17 17 17 17 17 18 18 19 19 18 19 20 20 20 20 20 20 19 18 18 18 18 17 16 16 15 15
16 17 17 18 18 18 18 18 18 18 18 18 18 18 18 18 18 18 18 18 18 18 18 18 18 19 19 20 20 21 21 20 20 19 20 19 18 19 18 17 16 16 16
18 19 19 19 19 18 18 18 18 18 18 19 19 19 19 19 19 18 19 20 20 20 19 19 19 19 19 19 21 22 22 21 20 20 20 20 19 19 18 18 17 17 17
18 19 20 20 19 19 18 18 18 18 18 19 19 19 19 19 20 19 19 19 20 20 19 19 20 20 21 20 20 21 22 22 21 21 21 21 20 20 20 19 18 18 18
20 20 20 20 20 19 18 18 18 18 18 19 19 19 19 19 20 20 19 19 19 19 20 20 20 20 20 20 20 20 20 20 21 21 21 21 21 21 21 19 19 18 18
21 21 20 20 20 19 19 18 19 19 19 19 19 19 19 20 20 20 20 19 19 19 19 20 21 22 21 21 21 21 21 21 21 22 22 21 21 21 21 20 20 19 19
22 21 21 21 21 20 20 20 20 20 20 20 20 20 20 20 21 21 20 20 20 20 20 21 21 22 22 22 21 22 23 23 22 23 22 21 22 21 22 21 21 21 20
23 23 23 23 22 22 21 21 21 21 20 20 21 21 21 20 21 21 21 22 21 21 21 21 22 22 22 22 22 23 23 24 24 23 23 23 23 23 23 23 23 22 22
24 24 24 24 24 24 24 23 22 22 22 22 21 21 21 21 21 22 22 23 23 22 22 21 21 21 22 22 23 23 23 24 25 25 24 24 25 25 25 24 25 25 24
25 25 25 24 25 25 25 24 24 23 23 22 22 22 22 23 23 23 24 24 24 23 23 23 22 22 23 23 23 23 24 24 25 25 25 25 26 26 26 26 26 26 26
26 26 25 25 25 25 26 25 24 24 24 23 23 23 23 24 24 24 25 24 24 24 24 23 22 23 24 24 25 25 25 25 25 26 26 27 27 27 27 27 27 27 27
26 26 25 25 25 26 26 26 25 25 25 24 24 24 24 25 25 26 26 25 25 25 26 25 25 25 25 25 26 26 26 26 27 27 27 27 27 27 28 28 28 29 29
26 26 26 25 24 25 25 25 26 26 26 25 25 24 25 25 25 26 26 26 27 27 27 26 27 27 27 27 27 26 26 27 27 27 27 27 28 28 28 29 29 29 30
27 27 27 26 25 25 25 26 26 25 25 24 24 25 25 25 26 26 26 27 27 27 27 27 28 28 28 28 28 28 27 26 26 27 27 28 28 29 29 29 29 30 30
28 28 27 27 26 26 26 26 26 27 26 26 25 26 27 27 27 28 27 27 27 27 28 27 28 28 28 28 28 28 28 27 27 27 27 28 29 30 30 31 31 30 31
Wind_Direction
282 282 283 285 285 284 283 282 282 281 281 282 281 279 277 272 269 268 269 268 268 267 265 265 264 264 266 267 268 270 268 266 267 267 266 265 265 263 258 253 249 249 248
281 282 283 283 284 283 283 283 282 282 282 282 283 281 278 275 272 269 268 268 267 265 264 264 264 262 263 264 267 270 269 268 266 266 266 265 265 261 254 249 249 249 248
284 283 282 282 282 283 285 285 284 282 282 282 282 281 278 275 273 271 268 267 265 265 264 263 261 262 263 263 263 264 265 265 263 261 261 263 264 259 252 251 250 253 254
284 283 283 280 280 283 285 285 285 282 282 281 281 279 277 273 270 271 270 266 264 264 262 261 260 262 264 261 260 260 260 260 261 258 258 259 262 264 258 251 250 252 252
282 281 282 281 281 283 284 284 283 283 282 280 280 279 277 275 271 271 270 268 267 265 264 261 258 260 261 261 260 260 257 256 257 258 259 259 260 261 261 259 255 253 252
284 281 279 279 280 283 284 283 282 282 281 281 280 278 277 276 273 272 271 271 267 266 265 262 259 258 258 259 260 260 257 257 258 259 257 256 257 260 259 261 259 258 256
283 281 279 279 280 281 281 282 281 280 280 280 280 278 276 275 275 273 272 272 269 266 265 262 259 259 259 259 261 258 256 257 256 258 257 254 254 257 259 259 259 259 257
283 281 282 281 281 282 283 282 281 280 280 279 280 280 278 277 277 275 273 272 270 266 264 262 259 259 259 259 260 258 254 256 256 256 255 253 252 254 256 257 258 257 257
285 284 285 283 282 282 282 282 281 280 280 280 280 280 279 278 277 275 274 272 270 266 263 260 259 258 260 258 257 256 255 255 255 255 253 254 253 252 255 256 255 256 257
287 286 285 284 283 282 281 280 280 281 280 280 279 279 279 278 276 274 273 271 269 267 264 260 259 259 261 260 256 255 255 254 258 257 254 251 251 252 254 256 256 257 257
286 285 285 285 284 282 281 281 282 282 281 279 278 277 277 277 277 275 274 272 269 266 264 261 259 259 260 260 256 254 256 256 256 255 253 252 251 251 252 255 257 258 259
284 284 284 284 284 284 282 282 282 282 280 278 277 276 276 275 275 276 275 273 272 270 266 262 259 259 259 259 255 255 255 253 253 253 251 251 251 251 254 255 256 257 259
285 286 286 286 285 285 283 281 280 281 280 278 277 277 276 275 275 276 274 274 272 271 268 264 261 259 258 256 256 257 256 253 251 250 249 250 251 251 251 252 253 255 257
286 286 286 287 286 285 282 280 280 279 279 279 278 278 277 276 275 275 275 275 273 270 267 265 264 262 260 261 258 255 255 252 247 249 248 250 250 251 251 251 252 253 257
286 286 285 286 287 284 282 280 280 279 279 278 278 278 277 276 274 273 274 274 273 270 265 265 264 263 262 263 260 255 253 250 248 249 250 250 251 251 251 249 250 253 254
284 287 287 287 286 283 280 279 279 280 279 279 278 277 276 276 274 272 272 274 273 271 267 264 264 267 267 265 262 257 253 251 251 249 248 247 248 249 249 248 250 253 254
285 286 287 286 284 280 278 280 280 281 281 279 279 278 277 275 274 272 272 273 272 270 270 267 267 268 267 266 264 258 254 251 252 250 246 246 247 248 248 248 251 252 254
285 285 283 285 284 280 277 279 280 280 280 279 278 278 278 276 274 272 274 274 271 268 270 269 268 268 267 265 263 259 255 253 253 250 248 247 248 249 249 249 250 252 254
285 284 282 282 283 281 280 279 279 278 278 278 277 276 276 275 275 274 276 275 271 268 270 271 269 267 265 263 263 260 258 256 253 250 249 249 248 249 249 249 250 252 254
284 285 282 281 281 280 278 278 276 275 276 276 276 275 275 277 277 277 277 275 272 271 272 272 268 265 265 264 265 262 259 256 253 252 252 250 249 249 249 249 251 253 254
284 284 283 282 281 281 279 276 275 274 274 274 274 275 275 277 277 277 277 274 273 273 272 271 267 267 267 266 265 262 258 258 256 254 252 250 249 249 250 251 253 255 256
285 285 282 281 282 283 281 277 274 273 274 273 273 275 275 277 277 277 276 274 273 273 271 268 266 267 267 267 267 266 262 260 258 256 253 251 251 251 252 253 255 257 257
286 285 283 283 282 282 282 278 274 273 273 272 273 274 276 277 276 275 273 272 274 273 270 267 268 267 268 267 267 267 264 261 258 256 255 254 253 253 253 255 257 258 258
285 285 284 285 283 282 282 281 276 272 273 271 273 274 274 275 276 275 273 273 273 272 271 269 268 268 268 267 268 269 266 262 259 256 256 255 254 253 254 256 259 260 260
284 284 283 284 284 284 283 282 278 276 273 273 274 274 275 274 275 274 274 273 273 273 272 271 269 267 267 267 268 268 267 265 262 257 257 257 256 255 255 256 258 260 261
283 283 281 282 284 285 284 282 279 274 272 273 275 275 276 275 275 274 274 274 274 273 273 272 270 269 268 267 267 265 264 264 264 261 259 259 259 257 255 257 259 261 261
Height
5843 5842 5842 5842 5841 5841 5840 5840 5839 5839 5839 5839 5839 5839 5839 5839 5839 5839 5839 5839 5839 5840 5840 5841 5841 5841 5842 5842 5843 5843 5843 5844 5844 5844 5844 5844 5843 5841 5841 5843 5846 5847 5849
5840 5840 5839 5839 5838 5838 5837 5837 5836 5836 5836 5835 5835 5835 5835 5835 5835 5835 5835 5836 5836 5836 5837 5837 5838 5838 5839 5839 5840 5840 5840 5841 5841 5841 5841 5841 5840 5839 5839 5840 5843 5845 5846
5837 5837 5836 5836 5835 5834 5834 5834 5833 5833 5833 5832 5832 5831 5831 5831 5831 5831 5831 5832 5832 5832 5833 5833 5834 5834 5835 5835 5836 5837 5837 5838 5838 5838 5838 5839 5838 5837 5838 5839 5841 5842 5844
5834 5833 5833 5832 5832 5831 5831 5830 5830 5830 5829 5829 5828 5828 5828 5828 5828 5828 5828 5828 5828 5829 5829 5830 5830 5831 5831 5832 5832 5833 5834 5834 5835 5835 5836 5836 5836 5836 5837 5838 5839 5840 5841
5831 5830 5830 5829 5828 5828 5827 5827 5826 5826 5826 5825 5825 5824 5824 5824 5824 5824 5824 5824 5824 5825 5825 5826 5826 5827 5827 5828 5829 5829 5830 5831 5831 5832 5833 5833 5834 5834 5835 5836 5836 5837 5838
5827 5827 5826 5825 5825 5824 5824 5823 5823 5822 5822 5821 5821 5821 5820 5820 5820 5820 5820 5820 5820 5820 5821 5821 5822 5823 5823 5824 5825 5825 5826 5827 5828 5829 5829 5830 5831 5831 5832 5833 5833 5834 5835
5823 5823 5822 5821 5821 5820 5820 5819 5819 5818 5818 5817 5817 5817 5816 5816 5816 5815 5815 5815 5815 5816 5816 5817 5817 5818 5819 5820 5820 5821 5822 5823 5824 5825 5826 5827 5827 5828 5829 5830 5830 5831 5832
5820 5819 5818 5818 5817 5816 5816 5815 5815 5814 5814 5813 5813 5812 5812 5812 5811 5811 5810 5810 5810 5810 5811 5811 5812 5813 5814 5815 5816 5816 5817 5819 5820 5821 5822 5823 5824 5825 5826 5826 5827 5828 5829
5816 5815 5814 5814 5813 5812 5812 5811 5810 5810 5809 5809 5808 5808 5807 5807 5806 5806 5805 5804 5804 5804 5805 5805 5806 5808 5809 5810 5811 5811 5813 5814 5815 5816 5817 5819 5820 5821 5822 5823 5824 5825 5826
5812 5811 5811 5810 5809 5808 5807 5806 5806 5805 5804 5804 5803 5803 5802 5801 5801 5801 5800 5799 5799 5798 5799 5800 5801 5802 5803 5804 5805 5806 5808 5809 5810 5812 5813 5814 5816 5817 5818 5819 5820 5821 5822
5808 5807 5806 5806 5805 5804 5803 5802 5801 5800 5799 5799 5798 5797 5797 5796 5795 5795 5795 5794 5794 5793 5793 5794 5795 5796 5797 5798 5799 5800 5802 5804 5805 5807 5808 5810 5811 5812 5814 5815 5816 5817 5818
5804 5803 5802 5801 5800 5799 5798 5797 5795 5794 5794 5793 5793 5792 5792 5791 5791 5790 5789 5789 5788 5788 5788 5788 5789 5790 5791 5792 5794 5795 5796 5798 5800 5801 5803 5805 5806 5808 5809 5810 5811 5812 5814
5800 5799 5798 5796 5795 5794 5792 5791 5790 5789 5788 5788 5787 5787 5786 5785 5785 5784 5784 5783 5783 5783 5783 5783 5783 5784 5785 5786 5788 5789 5790 5792 5794 5795 5797 5799 5801 5802 5804 5805 5807 5808 5809
5795 5794 5792 5791 5790 5788 5787 5785 5784 5783 5783 5782 5782 5781 5780 5779 5779 5778 5778 5777 5777 5777 5777 5777 5777 5778 5779 5780 5781 5783 5784 5786 5788 5790 5792 5794 5796 5797 5798 5800 5802 5803 5804
5790 5789 5787 5786 5784 5783 5781 5780 5779 5778 5777 5777 5776 5775 5774 5773 5773 5772 5772 5771 5771 5771 5771 5771 5772 5772 5773 5774 5774 5776 5777 5779 5781 5784 5786 5788 5790 5792 5793 5795 5796 5797 5799
5785 5783 5782 5780 5779 5777 5776 5775 5774 5773 5772 5771 5770 5769 5768 5767 5767 5766 5766 5765 5765 5765 5765 5765 5766 5766 5767 5767 5768 5769 5771 5773 5775 5777 5780 5782 5784 5786 5787 5789 5790 5792 5793
5779 5777 5776 5775 5773 5772 5771 5769 5768 5767 5766 5765 5764 5763 5762 5761 5761 5760 5760 5759 5759 5759 5759 5760 5760 5760 5760 5761 5762 5763 5765 5767 5769 5771 5773 5776 5778 5779 5781 5783 5784 5786 5787
5773 5771 5770 5769 5767 5766 5765 5763 5762 5761 5760 5759 5758 5758 5757 5756 5755 5755 5754 5754 5753 5753 5753 5754 5754 5754 5754 5755 5756 5757 5759 5760 5762 5764 5767 5769 5771 5773 5775 5777 5778 5780 5781
5766 5765 5763 5762 5761 5760 5758 5757 5756 5755 5754 5753 5752 5751 5751 5750 5749 5749 5748 5747 5747 5747 5747 5747 5747 5747 5747 5748 5749 5751 5752 5754 5756 5758 5760 5762 5764 5767 5768 5770 5772 5773 5775
5760 5758 5756 5755 5754 5753 5752 5750 5749 5748 5747 5746 5745 5745 5744 5743 5743 5742 5742 5741 5741 5741 5741 5741 5741 5741 5741 5742 5743 5744 5745 5746 5748 5750 5752 5755 5757 5759 5761 5763 5764 5766 5768
5752 5751 5749 5748 5747 5745 5744 5743 5742 5741 5740 5739 5738 5738 5737 5736 5736 5735 5735 5734 5734 5734 5734 5734 5734 5734 5735 5735 5736 5737 5738 5739 5741 5743 5745 5747 5749 5752 5753 5755 5756 5758 5759
5745 5743 5741 5740 5739 5738 5736 5735 5734 5734 5733 5732 5731 5731 5730 5729 5729 5728 5728 5727 5727 5727 5727 5727 5727 5728 5728 5728 5729 5729 5730 5732 5734 5735 5737 5739 5741 5743 5745 5747 5748 5750 5751
5737 5735 5733 5732 5731 5730 5728 5727 5726 5726 5725 5725 5724 5723 5723 5722 5721 5720 5720 5720 5719 5719 5719 5719 5720 5720 5720 5721 5721 5721 5722 5723 5725 5727 5729 5731 5733 5735 5737 5739 5740 5741 5742
5730 5728 5726 5724 5723 5722 5721 5719 5718 5717 5717 5717 5716 5716 5715 5714 5713 5713 5712 5712 5711 5711 5711 5711 5712 5712 5712 5712 5712 5713 5713 5714 5716 5718 5720 5722 5724 5726 5728 5730 5731 5732 5734
5721 5720 5718 5717 5716 5714 5713 5711 5710 5710 5709 5709 5708 5708 5707 5706 5706 5705 5704 5704 5704 5703 5703 5702 5702 5703 5703 5704 5704 5705 5705 5706 5707 5709 5711 5713 5716 5717 5719 5721 5722 5723 5724
5713 5712 5710 5709 5708 5706 5705 5703 5702 5702 5702 5701 5700 5700 5699 5698 5697 5696 5696 5696 5695 5695 5694 5694 5694 5694 5694 5695 5695 5696 5697 5698 5699 5701 5703 5704 5706 5708 5710 5712 5713 5714 5715